sat.trackr.live / text

‹ back to catalog

STARLINK-4784

NORAD 53839 · 2022-114X

PAYLOAD ACTIVE UNKNOWN

§ Identity

Operator
Country
US
Launch date
2022-09-19
Launch site
AFETR
Launch vehicle
Mass (kg)
RCS (m²)

Purposes: comms

External: N2YO · Heavens-Above · Gunter

§ Orbital elements

Epoch: 2026-05-25T04:00:51.126624Z

Period
95.44 min
Inclination
53.2131°
Eccentricity
0.0001206
Mean motion
15.08839014 rev/d
Perigee alt
538.9 km
Apogee alt
540.6 km
Semi-major
6,917.9 km
B*
6.5839e-5
RAAN
311.0461°
Arg perigee
85.3575°
Mean anomaly
274.7554°
Rev number
20,451

§ Raw data

STARLINK-47841 53839U 22114X   26145.16725841  .00000760  00000+0  65839-4 0  99972 53839  53.2131 311.0461 0001206  85.3575 274.7554 15.08839014204518

JSON: /api/v1/satellites/53839 · /tle

For live sub-satellite position, see the globe view (requires WebGL).

§ Visibility from observer

Set your observer location to see the next 7 days of passes ≥ 10°. The values pass through the URL so the page stays shareable.

No JS? Fill the form by hand. The geolocation button needs JavaScript.